CAPE
2 0 8 6 10 0 0 6 0 1 0 0 1 0 0 0 0 0 0 1 4 0 4 5 0 0 0 0 1 0 0 0 0 0 0 0 19 0 1 0 0 0 0 0
12 4 11 6 2 0 0 0 0 0 0 0 0 2 0 0 0 2 5 0 3 0 0 2 1 0 3 0 1 0 0 0 0 0 3 0 1 0 0 1 0 0 0 0
12 9 3 12 10 2 0 0 0 0 0 2 2 0 0 0 0 0 0 0 0 0 0 3 0 1 4 1 0 5 0 0 0 0 0 0 0 0 0 0 0 0 0 0
19 11 8 7 15 19 2 1 0 0 0 0 0 0 0 0 0 0 0 0 0 2 0 0 0 0 0 3 4 1 0 0 0 0 0 0 1 0 0 0 0 0 0 0
22 12 22 8 20 16 4 0 0 0 0 0 0 0 0 0 0 4 1 0 0 0 1 1 0 5 0 0 3 0 0 0 0 0 0 3 0 0 0 0 0 0 1 0
16 8 25 6 17 14 1 0 0 2 1 1 0 0 0 0 4 0 5 11 1 0 0 0 0 0 0 0 0 0 2 1 1 0 0 0 0 0 0 0 0 0 0 0
5 25 23 10 12 12 2 0 7 1 0 0 0 0 0 0 0 0 0 3 2 0 5 4 0 0 0 0 0 0 0 0 1 0 0 0 0 0 0 0 0 0 0 0
0 14 13 2 15 20 5 0 3 1 0 0 0 0 0 0 0 0 5 0 10 56 0 0 0 0 0 0 0 0 0 0 2 0 0 0 0 0 0 0 0 0 0 0
0 0 14 17 7 16 18 0 9 12 10 0 4 3 0 0 0 0 0 4 13 1 0 0 0 0 0 0 0 38 0 0 0 0 0 0 0 0 0 0 0 0 0 0
2 18 15 12 3 15 15 1 12 16 14 2 0 0 2 1 1 4 0 0 0 0 0 0 0 0 0 0 0 0 0 0 0 0 0 0 0 0 0 0 0 0 0 0
11 27 20 17 27 24 21 0 4 13 4 0 0 0 0 0 0 2 0 0 0 0 1 0 0 0 0 0 0 0 0 0 0 0 0 0 1 0 0 0 0 0 0 0
0 19 16 14 29 20 25 2 0 2 19 0 0 0 0 0 3 4 6 5 0 0 0 0 1 0 0 0 0 0 0 0 9 0 0 0 0 7 0 0 0 0 0 0
21 9 6 20 20 26 12 1 0 2 1 0 0 0 0 0 0 0 0 0 0 0 0 0 0 0 0 0 0 0 0 5 11 0 1 0 0 1 30 0 0 0 0 0
15 14 7 25 16 14 22 12 0 17 12 3 0 0 0 0 0 0 0 0 0 0 0 0 0 1 0 0 0 0 0 0 0 0 0 7 34 36 28 0 0 0 0 0
17 6 3 30 21 30 10 0 0 0 11 0 0 0 0 0 0 0 0 0 0 1 0 0 0 0 0 0 0 0 0 0 0 0 0 0 0 10 1 0 0 0 0 0
1 20 24 10 24 33 10 0 0 0 0 16 1 0 0 0 0 0 0 5 0 6 5 11 0 0 2 0 0 0 0 0 0 0 0 0 1 11 0 0 0 0 0 0
5 20 12 22 30 12 6 0 0 0 0 0 0 0 0 0 0 0 0 0 2 10 0 0 0 0 2 0 0 0 0 0 0 4 0 0 0 0 0 0 0 0 0 0
3 11 19 30 27 25 7 0 0 6 10 8 0 0 0 0 0 0 0 0 1 1 1 1 1 1 0 0 0 0 0 0 0 0 0 0 0 0 0 0 0 0 0 0
1 20 28 20 5 3 0 0 0 5 4 7 0 0 0 3 0 0 1 0 0 0 1 0 0 1 0 0 9 0 2 0 0 0 0 0 0 0 0 0 0 0 0 0
2 4 5 1 3 4 1 2 0 1 0 0 0 0 0 0 2 15 0 0 0 1 0 0 0 0 0 0 3 0 0 0 0 0 0 0 0 0 0 0 0 0 0 0
1 2 1 0 4 0 0 2 0 0 0 0 0 0 0 0 0 0 6 3 1 0 0 0 2 1 0 0 0 0 0 0 0 0 0 0 0 0 0 0 0 0 0 1
4 2 0 0 0 0 0 0 0 0 0 0 0 0 0 0 5 1 1 0 0 0 0 1 2 0 0 0 0 0 0 0 0 0 0 0 0 0 1 0 0 0 1 1
0 1 0 0 0 0 0 0 0 0 0 14 0 0 2 3 3 0 0 0 0 0 0 0 0 0 0 0 0 0 0 0 0 0 0 1 1 0 0 0 1 1 1 0
0 1 0 0 0 0 0 0 0 14 15 5 0 0 0 0 0 0 0 0 0 0 0 0 0 0 0 0 0 0 0 0 0 0 0 0 1 0 0 0 0 1 1 0
0 4 0 0 0 0 0 2 0 0 0 1 6 3 2 0 0 0 1 1 0 1 0 0 0 0 0 0 0 0 0 0 1 1 0 0 0 0 0 0 0 0 0 0
3 0 0 0 0 0 0 0 0 0 1 0 0 0 2 0 1 1 0 0 0 0 0 0 0 0 0 0 0 0 0 1 0 1 0 0 2 1 0 0 0 1 1 1
3 0 0 0 0 0 0 0 0 0 4 0 0 1 0 2 0 0 0 0 0 0 0 0 0 0 0 0 0 0 1 0 1 4 0 0 0 0 0 0 0 0 0 0
CIN
0 -0 -2 -0 -1 0 0 -2 -0 -0 -1 0 -4 0 0 0 0 0 0 -13 -10 -1 -0 -5 -0 -1 -31 0 -1 0 0 0 0 -1 0 0 -25 0 0 0 0 -0 0 0
-0 -0 -1 -0 -0 0 -1 0 0 0 0 0 -1 -1 0 0 0 -6 -11 0 -2 0 0 -1 -2 -20 -30 -3 -1 -13 0 0 0 0 0 0 0 0 0 0 0 0 -0 0
-0 -0 -0 -0 -1 -0 -0 0 0 0 0 -4 -1 0 0 0 -4 0 0 0 0 0 0 -27 0 -7 -6 -5 -3 -33 0 0 0 0 0 0 0 0 0 0 0 0 0 0
-1 -1 -0 0 -0 -1 -2 -0 0 0 0 0 0 0 -0 0 0 0 -0 0 0 -2 0 0 0 0 0 -10 -6 -8 0 0 0 0 0 0 -0 0 0 0 0 0 0 0
-0 -0 -0 -2 -1 -4 -0 0 0 0 0 0 0 0 0 0 0 -7 -9 0 0 0 -2 -2 0 -0 0 0 -14 0 -0 0 0 0 -0 -3 0 0 0 0 0 0 0 0
0 -0 -1 -3 -3 -0 -0 -0 0 -0 -1 -1 0 0 0 0 -4 0 -7 -4 -8 0 0 0 0 0 0 0 0 0 -1 -2 -4 0 0 0 0 0 0 0 0 0 0 0
-0 -0 -1 -3 -4 -2 -0 0 -1 -0 0 -0 0 0 0 0 0 -4 0 -9 -7 0 -7 -8 -2 0 0 0 0 0 0 -0 -4 0 0 0 0 0 0 0 0 0 0 0
0 -0 -2 -10 -1 -2 -2 -4 -0 -4 -0 0 0 0 0 0 0 -0 -9 0 -14 -9 0 0 0 0 0 0 0 0 0 0 -4 0 0 0 0 0 0 0 0 0 0 0
0 -0 -1 -2 -2 -0 -1 -0 -4 -0 -0 0 -1 -6 0 0 0 0 0 -15 -15 -3 0 0 0 0 0 0 0 -25 -3 0 -0 -0 -3 0 0 0 0 0 0 0 0 0
0 -1 -3 -3 -7 -1 -1 -0 -3 -0 -0 -5 0 0 -0 -0 -1 -2 0 0 0 0 0 0 0 0 -0 0 0 0 0 0 0 0 -0 0 0 0 0 0 0 0 -1 0
-0 -1 -2 -3 -1 -2 -1 -0 -7 -1 -0 -1 0 0 0 -0 -0 -1 0 0 0 0 0 -0 0 0 0 0 0 0 0 -1 0 0 0 0 -19 0 0 0 0 0 0 0
0 -1 -2 -3 -1 -5 -2 -0 0 -16 -0 -0 0 0 0 -0 -4 -1 -0 -1 0 0 0 0 -2 -0 0 0 0 -6 0 -1 -13 0 0 0 -7 -18 0 0 0 0 0 0
-0 -4 -1 -0 -1 -3 -5 -0 0 -2 -0 0 0 0 0 0 0 0 0 0 0 0 0 0 -0 0 -2 0 0 0 0 -1 -4 0 -3 0 -5 -36 -16 0 0 0 0 0
-2 -4 -1 -1 -2 -4 -1 -1 0 -2 -0 -0 0 0 0 0 0 0 0 0 0 0 -1 0 0 0 0 0 0 0 0 0 0 0 0 -24 -12 -6 -11 0 0 0 0 0
-4 -0 -0 -1 -0 -0 -0 0 0 0 -1 -0 0 0 0 0 0 0 0 0 0 0 0 -1 -0 -2 -0 0 0 0 0 0 0 0 0 0 0 -7 -9 0 0 0 0 0
0 -0 -1 -4 -1 -2 -2 0 0 0 -0 -0 -1 0 0 0 0 0 0 -15 0 -1 -2 -3 0 0 -1 0 0 0 0 0 0 0 0 0 -27 -13 0 0 0 0 0 0
0 -0 -5 -4 -1 -3 -0 0 0 -0 0 -0 0 0 0 0 0 0 0 0 -6 -1 0 0 -0 0 -1 -0 0 0 0 0 -2 -12 0 0 0 0 0 0 0 0 0 0
-0 -0 -3 -0 -0 -0 -0 0 0 -7 -0 -0 0 0 0 0 0 0 0 0 -3 -1 -1 -0 -2 -1 -1 -0 0 0 0 0 0 0 0 0 0 0 0 0 0 0 0 0
-1 -0 -0 -0 -1 -0 0 0 0 -5 -5 -1 -0 0 0 -24 0 0 -1 0 -0 0 0 -0 -0 -2 0 0 -20 -20 -29 0 0 0 0 0 0 0 0 0 0 0 0 0
-5 -0 -1 -1 -4 -2 -7 -5 -0 -8 -0 0 0 0 0 0 -6 -5 -0 -1 0 -0 0 0 -0 0 0 0 -13 -0 0 0 0 0 0 0 0 0 0 0 0 0 0 0
-2 0 -1 0 -6 0 -2 -0 -0 -1 0 0 0 0 0 0 0 0 -3 -7 -18 0 0 -1 -13 -1 0 0 0 0 0 0 0 0 0 0 0 0 -0 -1 -0 0 -0 -1
-9 -1 0 0 0 0 0 -0 0 -0 0 0 0 0 0 0 -2 -2 -0 0 0 0 -10 -5 -5 0 0 0 0 0 0 0 0 -0 0 0 0 -0 -0 0 0 0 0 0
0 -1 0 -2 0 0 0 0 0 0 0 -6 0 0 -6 -4 -1 0 -0 0 0 -28 0 0 -1 0 0 0 0 0 0 -0 -0 0 -1 -0 0 -0 0 0 0 0 0 -0
0 -1 0 0 0 0 0 0 0 -6 -7 -22 0 0 -0 0 -5 0 0 0 0 0 0 0 0 0 0 0 -0 -0 -0 0 0 -1 0 0 -1 0 0 0 0 0 0 0
0 -2 0 0 0 0 0 -3 -3 -7 0 -12 -5 -7 -5 0 -8 0 -17 -9 0 -9 0 -0 0 0 0 -0 0 0 0 -0 -0 -1 -0 -0 -0 0 0 0 0 0 0 0
-7 -2 0 0 0 0 0 0 0 0 -9 0 0 0 -12 0 -8 -7 0 -4 0 0 0 0 0 0 0 -2 0 -0 0 -0 -0 0 0 -0 -0 0 0 0 0 0 0 0
-1 -0 0 0 0 0 0 0 0 0 -3 0 -5 -1 0 -15 -10 0 -1 -0 0 0 0 0 0 0 -2 0 -1 0 -0 -0 -0 0 0 -0 0 0 0 0 0 0 0 0
Wind_Speed
20 23 22 23 23 25 21 19 23 15 19 23 16 16 17 19 30 21 25 23 20 26 34 38 37 32 27 22 25 26 23 28 38 40 30 31 36 36 40 52 42 53 50 71
20 21 22 20 21 21 20 21 20 17 14 20 16 16 21 28 30 28 20 21 19 31 36 34 28 34 24 27 24 25 21 25 34 35 28 24 31 31 31 35 37 45 46 69
18 19 19 18 19 17 17 20 23 20 18 15 17 21 23 23 28 32 33 33 30 33 35 31 32 32 28 25 29 27 22 25 29 36 39 36 31 31 30 32 39 39 49 48
16 17 16 17 16 13 16 17 19 18 21 19 17 20 22 33 36 32 31 31 30 33 32 30 27 30 32 26 27 24 22 29 29 30 31 34 38 36 32 33 32 35 37 50
17 16 14 15 15 10 13 18 18 19 19 16 16 20 21 19 25 33 31 34 33 33 34 32 34 33 29 28 22 24 24 28 27 32 31 35 37 42 37 32 33 36 38 43
16 14 13 12 13 8 13 14 14 16 18 19 19 20 20 18 27 27 28 32 33 31 36 39 40 37 36 35 35 35 33 29 30 35 27 33 41 37 38 34 29 34 40 35
17 14 11 9 10 6 10 13 18 17 19 17 17 21 20 25 26 37 35 33 35 37 36 38 39 39 39 38 41 32 37 34 30 37 34 43 34 31 32 34 31 34 38 37
18 15 11 9 7 8 10 11 13 16 18 16 19 20 21 21 26 28 31 33 34 36 35 36 34 30 31 32 35 35 26 33 31 34 36 37 39 33 36 38 37 35 36 36
16 14 11 10 7 7 10 11 10 13 19 16 20 26 23 24 20 20 22 22 31 29 26 25 27 27 27 29 26 22 18 22 31 29 32 38 26 23 14 19 41 32 30 31
15 14 12 12 6 8 10 12 9 11 16 15 20 18 19 20 18 19 22 22 26 24 20 25 24 29 26 30 35 34 32 24 31 32 34 36 33 36 36 36 30 23 22 24
16 13 11 13 6 8 11 12 10 11 15 15 18 15 15 13 11 12 16 26 19 19 18 22 25 28 26 31 38 40 38 30 26 29 31 37 22 15 22 26 27 26 24 22
18 13 12 12 6 8 11 13 12 12 13 15 16 17 13 10 7 5 8 10 21 24 28 25 28 31 32 29 29 24 29 26 25 24 30 19 22 23 24 29 30 30 31 30
16 14 12 11 7 10 10 13 16 17 16 15 9 6 6 12 16 19 15 15 10 16 16 9 18 17 29 31 29 30 26 26 26 26 29 34 36 36 32 35 35 33 34 35
16 15 11 11 9 10 11 14 13 9 15 17 16 10 4 1 8 14 18 19 6 3 9 13 7 22 27 31 33 39 36 35 35 39 36 32 28 28 25 32 34 34 33 32
16 13 11 11 8 10 13 15 10 5 5 13 17 13 16 15 24 21 15 8 9 5 9 5 4 18 27 37 38 39 31 35 35 42 40 41 36 27 28 30 33 30 33 36
14 15 12 13 12 13 19 20 17 3 1 9 17 12 9 14 9 2 3 12 5 6 10 15 15 20 27 36 41 39 32 33 35 41 40 42 38 32 29 32 33 35 36 37
16 16 12 13 10 11 11 13 15 20 10 12 18 16 11 23 10 14 15 12 11 12 17 16 20 24 25 37 45 42 42 40 38 31 29 29 33 33 34 37 40 42 43 44
17 18 13 13 13 10 8 5 6 6 12 11 15 16 11 13 9 10 11 12 10 8 11 20 24 24 16 30 31 35 36 24 23 25 26 29 33 36 37 39 43 47 50 49
18 20 15 15 13 14 13 9 1 2 2 11 11 13 13 9 13 14 12 9 9 5 3 11 11 18 23 25 24 24 25 23 26 28 30 33 36 39 42 43 45 49 51 50
21 20 15 16 14 14 14 16 12 6 3 4 10 9 7 8 10 13 15 14 10 12 2 11 6 5 4 27 24 19 21 24 25 30 36 39 40 41 43 45 47 50 55 56
15 14 15 18 11 16 14 15 12 10 12 9 10 3 5 3 12 8 15 12 14 12 10 7 8 12 16 19 21 20 23 26 29 32 36 39 41 43 44 47 49 52 54 53
19 20 17 14 15 14 15 15 13 10 13 10 12 11 7 10 14 3 7 9 15 11 14 13 15 17 22 23 25 26 27 30 34 36 38 40 39 39 43 47 49 48 48 47
17 13 15 14 13 14 15 15 13 13 12 15 20 16 12 11 11 10 11 10 13 20 19 23 21 19 22 24 26 29 31 33 34 36 37 37 37 39 40 42 40 42 42 43
14 14 16 14 15 14 12 12 15 17 19 21 24 13 11 10 10 10 10 8 17 12 17 18 19 20 23 25 27 30 32 34 35 36 36 36 37 38 35 35 38 38 40 41
16 14 17 16 15 15 17 19 21 20 19 20 18 19 15 15 12 10 11 11 9 11 13 18 20 20 24 26 27 30 31 34 35 35 35 35 35 35 36 37 38 38 39 39
17 15 19 21 24 23 22 24 24 22 18 17 18 18 19 16 13 10 9 10 10 12 14 18 21 24 26 26 28 30 32 33 34 34 33 33 33 34 36 38 37 36 38 39
19 20 19 22 27 28 28 27 25 23 19 16 14 14 14 18 14 13 13 13 11 11 15 18 21 24 26 28 30 31 33 34 34 34 33 32 32 33 35 38 38 36 35 36
Wind_Direction
348 349 353 354 356 357 3 4 357 18 7 351 357 348 350 346 328 337 332 340 337 319 299 290 290 289 297 301 304 294 294 261 250 244 247 247 246 251 248 242 244 243 250 247
349 350 350 356 359 3 3 358 354 5 14 353 355 351 340 332 327 330 342 341 344 322 304 303 298 287 299 300 299 298 298 271 254 241 240 254 247 257 258 252 248 246 242 237
347 350 353 357 1 8 8 -0 357 0 7 2 351 348 341 338 331 320 318 317 323 317 302 301 293 290 299 304 286 289 291 274 258 248 250 254 254 257 261 254 246 249 241 246
346 350 353 357 359 9 8 1 356 0 354 350 348 342 335 322 315 322 324 320 317 311 308 312 312 300 296 300 294 285 283 274 271 270 263 256 254 256 260 255 255 251 250 246
346 349 352 358 359 13 1 351 353 356 345 344 342 340 339 337 334 322 324 317 315 311 298 298 299 295 298 295 301 282 282 279 282 270 273 258 259 253 255 260 259 257 252 252
346 348 350 357 0 12 356 356 346 343 346 347 343 337 336 335 330 330 327 320 315 310 297 286 287 282 282 280 276 273 272 279 277 266 284 275 256 254 248 257 261 255 251 253
344 344 348 353 357 2 348 347 347 341 331 335 331 331 330 328 327 315 320 320 314 301 297 293 287 280 275 276 266 281 265 270 281 270 277 256 263 273 264 254 260 257 254 255
345 346 349 348 350 349 342 338 339 339 330 333 327 327 326 323 326 326 323 318 316 309 299 293 289 288 285 279 267 253 279 270 274 269 264 273 277 272 261 252 255 256 256 256
345 346 347 348 343 348 342 334 327 331 331 326 330 330 329 324 323 325 329 340 322 321 309 299 285 285 288 279 282 289 300 282 265 271 267 256 274 288 297 279 254 269 266 263
344 346 350 349 342 345 344 343 339 328 322 325 329 321 330 334 334 331 336 342 333 327 319 305 291 280 288 275 263 268 275 290 265 266 267 268 278 273 275 255 256 290 282 280
344 343 346 348 342 350 347 344 342 326 317 293 307 290 286 306 306 309 332 332 343 330 317 301 294 283 290 276 258 260 264 274 277 266 270 265 291 307 274 275 282 285 285 287
341 345 347 346 348 350 348 341 341 329 308 292 297 263 263 248 247 283 344 338 313 304 294 290 302 288 288 265 264 281 270 272 282 275 266 305 297 311 309 285 279 279 279 278
347 349 349 351 354 351 352 338 334 337 328 314 300 304 257 220 220 220 225 218 279 220 216 252 311 307 279 266 262 269 280 283 277 287 277 274 289 293 295 283 283 283 285 283
342 345 351 353 353 349 346 339 341 345 351 346 353 15 4 326 206 204 203 218 314 292 331 319 312 294 281 271 274 267 273 280 277 269 276 289 300 304 310 292 292 293 295 294
345 350 352 352 352 349 347 336 321 299 333 353 340 311 255 223 221 211 203 208 223 265 313 291 271 312 293 276 274 265 283 279 278 269 278 279 289 307 307 300 295 300 297 294
347 346 356 357 355 357 354 358 18 3 230 7 357 8 325 227 176 81 236 215 207 311 328 324 317 307 301 278 270 272 286 289 286 276 284 279 289 302 306 300 299 299 299 299
343 347 351 353 354 357 355 5 20 13 31 10 357 357 19 328 355 332 327 339 335 327 319 317 312 307 303 281 259 256 277 284 285 297 303 295 297 304 305 300 298 296 293 293
340 344 349 349 352 348 330 270 252 4 351 1 352 346 347 336 353 350 350 347 358 357 339 325 314 312 312 295 299 286 282 303 305 299 307 308 307 305 304 302 299 294 292 294
338 340 345 347 354 352 1 12 184 202 357 1 350 349 358 18 336 328 345 354 356 84 28 350 358 329 306 305 311 307 302 303 299 306 310 310 309 307 304 304 301 297 296 297
334 342 358 355 10 9 6 3 7 20 13 323 322 331 274 328 336 348 340 348 3 358 72 17 28 359 331 310 316 322 309 309 315 311 308 310 311 311 308 306 303 299 294 292
349 351 351 357 22 1 359 354 360 12 6 8 355 347 232 325 216 286 319 336 336 356 13 38 36 16 2 340 349 338 331 318 314 312 309 307 307 305 303 303 302 300 297 296
333 336 341 354 355 354 349 349 359 5 3 23 11 14 53 23 340 22 338 334 330 344 352 354 271 345 328 330 322 321 322 322 317 314 309 309 306 307 309 307 305 307 306 304
329 341 345 351 354 338 339 339 348 357 9 3 349 351 14 22 6 357 347 347 324 317 321 311 312 334 336 330 322 320 321 319 316 311 311 310 310 319 323 328 332 324 318 311
328 331 329 336 338 335 335 332 338 339 339 335 337 333 -0 7 3 359 353 355 327 338 322 315 320 330 335 330 332 327 327 328 322 321 320 321 322 326 339 347 341 341 329 318
316 324 324 322 325 327 328 327 327 330 338 335 334 325 328 334 341 345 343 346 348 346 339 316 322 332 329 330 332 331 333 335 335 335 333 332 333 337 340 343 344 344 337 333
309 309 313 318 316 315 317 318 318 324 327 329 328 323 318 317 329 337 330 335 339 340 342 333 324 325 325 327 327 328 328 331 334 338 340 340 338 337 339 342 350 351 349 347
303 306 304 303 306 307 307 308 309 317 322 318 323 324 320 317 326 327 334 330 344 351 345 339 334 331 330 328 324 321 322 324 327 333 337 336 335 336 337 338 344 349 354 357